Flag for U.S.A. Weather past 2 weeks in Lincoln, Nebraska, U.S.A.

Now
63 °F

Passing clouds.


Feels Like: 63 °F
Forecast: 58 / 69 °F
Wind: 12 mph from South

Location: Lincoln Municipal Airport

Current Time: Sep 22, 2014 at 11:29:03 PM

Latest Report: Sep 22, 2014 at 10:54 PM


Visibility: 10 mi

Pressure: 30.17 "Hg

Humidity: 65%

Dew point: 51 °F

Location of LincolnLocation

Historic Weather in Lincoln — Graph

°F

Lincoln temperature yesterday

Maximum temperature yesterday: 74 °F (at 2:54 PM)
Minimum temperature yesterday: 50 °F (at 6:54 AM)
Average temperature yesterday: 62 °F

Past Weeks' High & Low Weather Summary

 TemperatureHumidityPressure
High90 °F (Sep 8, 4:54 PM)97% (Sep 13, 2:54 AM)30.48 "Hg (Sep 13, 2:54 AM)
Low36 °F (Sep 13, 5:54 AM)33% (Sep 20, 3:54 PM)29.55 "Hg (Sep 9, 6:54 PM)
Average63 °F73%30.07 "Hg
* Reported Sep 7 9:54 PM — Sep 22 9:54 PM, Lincoln, Weather by CustomWeather, © 2014

Note: Actual official high and low records may vary slightly from our data, if they occured in-between our weather recording intervals... More about our weather records

Advertising

Lincoln weather history for previous 24 hours

 ConditionsComfort  
Time TempWeatherWind HumidityBarometerVisibility
9:54 PM
Sep 22
62 °FClear.8 mph70%30.19 "Hg10 mi
8:54 PM64 °FClear.7 mph61%30.18 "Hg10 mi
7:54 PM66 °FSunny.8 mph52%30.17 "Hg10 mi
6:54 PM69 °FSunny.8 mph49%30.17 "Hg10 mi
5:54 PM74 °FSunny.9 mph37%30.18 "Hg10 mi
4:54 PM75 °FSunny.9 mph36%30.19 "Hg10 mi
3:54 PM74 °FSunny.9 mph37%30.21 "Hg10 mi
2:54 PM75 °FSunny.7 mph37%30.22 "Hg10 mi
1:54 PM73 °FSunny.8 mph38%30.26 "Hg10 mi
12:54 PM71 °FSunny.10 mph41%30.29 "Hg10 mi
11:54 AM69 °FSunny.9 mph49%30.30 "Hg10 mi
10:54 AM64 °FSunny.6 mph68%30.32 "Hg10 mi
9:54 AM58 °FSunny.5 mph78%30.33 "Hg10 mi
8:54 AM52 °FSunny.No wind86%30.32 "Hg9 mi
7:54 AM48 °FClear.No wind86%30.33 "Hg10 mi
6:54 AM44 °FClear.No wind89%30.32 "Hg10 mi
5:54 AM45 °FClear.No wind93%30.31 "Hg10 mi
4:54 AM45 °FClear.3 mph90%30.30 "Hg10 mi
3:54 AM50 °FClear.3 mph86%30.29 "Hg10 mi
2:54 AM48 °FClear.5 mph89%30.29 "Hg10 mi
1:54 AM48 °FClear.No wind89%30.29 "Hg10 mi
12:54 AM50 °FClear.3 mph86%30.29 "Hg10 mi
11:54 PM
Sep 21
50 °FClear.3 mph89%30.28 "Hg10 mi
Weather by CustomWeather, © 2014

See weather overviewHow to use our weather pages